Weather History for Sheridan, WY

Change the Weather History Date:

Tuesday, October 11, 2011

  Actual Average Record
Temperature  
Mean Temperature 55 °F 47 °F  
Max Temperature 68 °F 62 °F 86 °F (1995)
Min Temperature 41 °F 33 °F 15 °F (1977)
Degree Days  
Heating Degree Days 10 18  
Month to date heating degree days 85 175  
Since 1 July heating degree days 231 478  
Cooling Degree Days 0 0  
Month to date cooling degree days 12 0  
Year to date cooling degree days 511 418  
Growing Degree Days 4 (Base 50)    
Moisture  
Dew Point 36 °F    
Average Humidity 54    
Maximum Humidity 82    
Minimum Humidity 26    
Precipitation  
Precipitation 0.01 in 0.05 in 0.72 in (1920)
Month to date precipitation 2.77 0.61  
Year to date precipitation 16.09 12.09  
Sea Level Pressure  
Sea Level Pressure 29.72 in    
Wind  
Wind Speed 6 mph (WNW)    
Max Wind Speed 31 mph    
Max Gust Speed 36 mph    
Visibility 10 miles    
Events Rain    
T = Trace of Precipitation, MM = Missing Value Source: NWS Daily Summary

Daily Weather History Graph

Daily Weather History Graph

Search for Another Location

Airport:

Trip Planner

Search our weather history database for the weather conditions in past years. The results will help you decide how hot, cold, wet, or windy it might be!

Date:

Astronomy

Oct. 11, 2011 Rise Set
Actual Time 7:17 AM MDT 6:30 PM MDT
Civil Twilight 6:48 AM MDT 6:59 PM MDT
Nautical Twilight 6:14 AM MDT 7:33 PM MDT
Astronomical Twilight 5:40 AM MDT 8:07 PM MDT
Moon 6:01 PM MDT (10/11) 7:00 AM MDT (10/11)
Length of Visible Light 12h 11m
Length of Day
11h 12m
Full, 100% of the Moon is Illuminated
Oct 11
Full
Oct 11
Full
Oct 19
Last Quarter
Oct 26
New
Nov 2
First Quarter

Hourly Weather History & Observations

Time (MDT) Temp. Windchill Dew Point Humidity Pressure Visibility Wind Dir Wind Speed Gust Speed Precip Events Conditions
12:53 AM 44.6 °F - 33.8 °F 66% 29.70 in 10.0 mi Calm Calm - N/A   Clear
1:53 AM 48.0 °F - 33.1 °F 56% 29.63 in 10.0 mi South 6.9 mph - N/A   Mostly Cloudy
2:53 AM 48.0 °F - 36.0 °F 63% 29.63 in 10.0 mi NNW 4.6 mph - N/A   Overcast
3:53 AM 44.1 °F - 36.0 °F 73% 29.64 in 10.0 mi Calm Calm - N/A   Overcast
4:53 AM 44.1 °F 42.5 °F 36.0 °F 73% 29.65 in 10.0 mi NW 3.5 mph - N/A   Mostly Cloudy
5:53 AM 43.0 °F - 36.0 °F 76% 29.67 in 10.0 mi Calm Calm - N/A   Overcast
6:53 AM 42.8 °F 40.1 °F 37.4 °F 81% 29.71 in 10.0 mi South 4.6 mph - N/A   Overcast
7:53 AM 42.8 °F - 37.4 °F 81% 29.72 in 10.0 mi Calm Calm - N/A   Mostly Cloudy
8:53 AM 48.9 °F - 37.0 °F 64% 29.73 in 10.0 mi SSE 4.6 mph - N/A   Clear
9:53 AM 55.9 °F - 35.1 °F 45% 29.71 in 10.0 mi ESE 3.5 mph - N/A   Clear
10:53 AM 62.1 °F - 36.0 °F 38% 29.68 in 10.0 mi East 3.5 mph - N/A   Clear
11:53 AM 66.0 °F - 33.1 °F 29% 29.66 in 10.0 mi Variable 4.6 mph - N/A   Clear
12:53 PM 66.9 °F - 30.9 °F 26% 29.65 in 10.0 mi SE 12.7 mph - N/A   Scattered Clouds
1:53 PM 64.4 °F - 32.0 °F 30% 29.69 in 10.0 mi East 8.1 mph - N/A   Overcast
2:53 PM 62.1 °F - 36.0 °F 38% 29.67 in 10.0 mi West 13.8 mph - 0.00 in   Overcast
3:53 PM 62.1 °F - 36.0 °F 38% 29.71 in 10.0 mi NW 6.9 mph - N/A   Overcast
4:53 PM 59.0 °F - 39.0 °F 48% 29.72 in 10.0 mi NNW 11.5 mph - N/A   Scattered Clouds
5:53 PM 55.9 °F - 42.1 °F 60% 29.75 in 10.0 mi WNW 4.6 mph - N/A   Partly Cloudy
6:53 PM 53.1 °F - 37.9 °F 57% 29.78 in 10.0 mi Variable 4.6 mph - N/A   Mostly Cloudy
7:53 PM 53.1 °F - 37.9 °F 57% 29.79 in 9.0 mi Variable 6.9 mph - 0.01 in Rain Light Rain
8:53 PM 50.0 °F - 39.0 °F 66% 29.82 in 10.0 mi West 9.2 mph - 0.00 in   Partly Cloudy
9:53 PM 50.0 °F - 41.0 °F 71% 29.83 in 10.0 mi WNW 10.4 mph - N/A   Overcast
10:53 PM 50.0 °F - 39.9 °F 68% 29.84 in 10.0 mi NW 9.2 mph - N/A   Overcast
11:53 PM 50.0 °F - 37.0 °F 61% 29.86 in 10.0 mi NW 8.1 mph - N/A   Mostly Cloudy